TimeAKST,TemperatureF,Dew PointF,Humidity,Sea Level PressureIn,VisibilityMPH,Wind Direction,Wind SpeedMPH,Gust SpeedMPH,PrecipitationIn,Events,Conditions,WindDirDegrees,DateUTC
12:53 AM,24.1,17.1,75,30.31,10.0,NNW,5.8,-,N/A,,Overcast,330,2013-03-05 09:53:00
1:53 AM,24.1,17.1,75,30.31,10.0,North,3.5,-,N/A,,Overcast,350,2013-03-05 10:53:00
3:53 AM,21.9,17.1,82,30.26,10.0,NE,4.6,-,N/A,,Overcast,50,2013-03-05 12:53:00
4:53 AM,19.9,15.1,81,30.26,10.0,Calm,Calm,-,N/A,,Scattered Clouds,0,2013-03-05 13:53:00
5:53 AM,19.0,15.1,85,30.24,10.0,Calm,Calm,-,N/A,,Partly Cloudy,0,2013-03-05 14:53:00
6:53 AM,17.1,14.0,88,30.23,10.0,NNW,3.5,-,N/A,,Clear,340,2013-03-05 15:53:00
7:53 AM,14.0,12.0,92,30.22,10.0,Calm,Calm,-,N/A,,Partly Cloudy,0,2013-03-05 16:53:00
8:53 AM,16.0,12.9,88,30.21,10.0,East,5.8,-,N/A,,Clear,80,2013-03-05 17:53:00
9:53 AM,23.0,17.1,78,30.18,10.0,ENE,3.5,-,N/A,,Clear,70,2013-03-05 18:53:00
10:53 AM,24.1,16.0,71,30.17,10.0,NNW,3.5,-,N/A,,Clear,340,2013-03-05 19:53:00
11:53 AM,30.0,19.0,64,30.14,10.0,NNW,4.6,-,N/A,,Clear,340,2013-03-05 20:53:00
12:53 PM,35.1,23.0,61,30.13,10.0,Calm,Calm,-,N/A,,Clear,0,2013-03-05 21:53:00
1:53 PM,36.0,25.0,64,30.11,10.0,Calm,Calm,-,N/A,,Clear,0,2013-03-05 22:53:00
2:53 PM,36.0,25.0,64,30.08,10.0,Calm,Calm,-,N/A,,Clear,0,2013-03-05 23:53:00
3:53 PM,32.0,21.0,64,30.06,10.0,North,5.8,-,N/A,,Clear,350,2013-03-06 00:53:00
4:53 PM,30.9,21.9,69,30.05,10.0,NNE,4.6,-,N/A,,Clear,20,2013-03-06 01:53:00
5:53 PM,33.1,21.9,64,30.04,10.0,NE,4.6,-,N/A,,Overcast,50,2013-03-06 02:53:00
6:53 PM,27.0,18.0,69,30.03,10.0,NE,4.6,-,N/A,,Clear,50,2013-03-06 03:53:00
7:53 PM,23.0,17.1,78,30.02,10.0,North,3.5,-,N/A,,Clear,350,2013-03-06 04:53:00
8:53 PM,19.9,15.1,81,30.01,10.0,North,3.5,-,N/A,,Partly Cloudy,10,2013-03-06 05:53:00
9:53 PM,19.0,14.0,81,29.99,10.0,NE,6.9,-,N/A,,Scattered Clouds,40,2013-03-06 06:53:00
10:53 PM,21.0,16.0,81,29.99,10.0,Calm,Calm,-,N/A,,Overcast,0,2013-03-06 07:53:00
11:53 PM,21.0,17.1,85,29.99,10.0,NE,4.6,-,N/A,,Overcast,40,2013-03-06 08:53:00